• In Belgium
  • List of Countries
  • For 7 days
  • Water Temperature
  • Satellite Maps
  • Weather Map
  • Weather Widgets
  • user-avatar
    Login

    Hourly Weather Maldegem

    Today, 23 April, Monday

    Time Temperature Precipitation Wind Pressure Humidity
    00:00 +13°C° 0 mm 5 mps 759 mmHg 78%
    01:00 +12°C° 0 mm 5 mps 759 mmHg 82%
    02:00 +10°C° 0 mm 5 mps 759 mmHg 86%
    03:00 +11°C° 0 mm 4 mps 759 mmHg 90%
    04:00 +10°C° 0 mm 5 mps 760 mmHg 88%
    05:00 +10°C° 0 mm 5 mps 760 mmHg 86%
    06:00 +9°C° 0 mm 5 mps 761 mmHg 84%
    07:00 +12°C° 0 mm 5 mps 761 mmHg 78%
    08:00 +13°C° 0 mm 5 mps 761 mmHg 72%
    09:00 +14°C° 0 mm 6 mps 762 mmHg 65%
    10:00 +15°C° 0 mm 6 mps 762 mmHg 63%
    11:00 +15°C° 0 mm 6 mps 762 mmHg 61%
    12:00 +16°C° 0 mm 6 mps 762 mmHg 59%
    13:00 +16°C° 0 mm 6 mps 762 mmHg 59%
    14:00 +16°C° 0 mm 6 mps 762 mmHg 60%
    15:00 +16°C° 0 mm 6 mps 762 mmHg 60%
    16:00 +15°C° 0 mm 6 mps 762 mmHg 64%
    17:00 +14°C° 0 mm 6 mps 762 mmHg 67%
    18:00 +13°C° 0 mm 5 mps 762 mmHg 71%
    19:00 +12°C° 0 mm 5 mps 763 mmHg 74%
    20:00 +10°C° 0 mm 5 mps 763 mmHg 77%
    21:00 +9°C° 0 mm 5 mps 763 mmHg 80%
    22:00 +8°C° 0 mm 5 mps 763 mmHg 82%
    23:00 +8°C° 0 mm 5 mps 763 mmHg 84%

    Tomorrow, 24 April, Tuesday

    Time Temperature Precipitation Wind Pressure Humidity
    00:00 +8°C° 0 mm 5 mps 763 mmHg 86%
    01:00 +8°C° 0 mm 6 mps 763 mmHg 87%
    02:00 +8°C° 0 mm 6 mps 762 mmHg 87%
    03:00 +8°C° 0 mm 6 mps 762 mmHg 88%
    04:00 +8°C° 0 mm 6 mps 762 mmHg 86%
    05:00 +8°C° 0 mm 7 mps 762 mmHg 85%
    06:00 +9°C° 0 mm 7 mps 762 mmHg 83%
    07:00 +10°C° 0 mm 7 mps 762 mmHg 79%
    08:00 +12°C° 0 mm 7 mps 762 mmHg 75%
    09:00 +14°C° 0 mm 7 mps 762 mmHg 71%
    10:00 +15°C° 0 mm 7 mps 762 mmHg 72%
    11:00 +15°C° 0 mm 7 mps 761 mmHg 72%
    12:00 +16°C° 0 mm 7 mps 761 mmHg 73%
    13:00 +16°C° 0 mm 7 mps 761 mmHg 75%
    14:00 +16°C° 0 mm 7 mps 761 mmHg 76%
    15:00 +15°C° 0 mm 7 mps 761 mmHg 78%
    16:00 +15°C° 0 mm 7 mps 760 mmHg 80%
    17:00 +14°C° 0 mm 6 mps 760 mmHg 82%
    18:00 +13°C° 0 mm 6 mps 760 mmHg 85%
    19:00 +13°C° 0.1 mm 6 mps 760 mmHg 87%
    20:00 +13°C° 0.1 mm 6 mps 760 mmHg 89%
    21:00 +11°C° 0.1 mm 6 mps 760 mmHg 91%
    22:00 +12°C° 0.2 mm 5 mps 760 mmHg 91%
    23:00 +12°C° 0.2 mm 5 mps 760 mmHg 90%

    Day after tomorrow, 25 April, Wednesday

    Time Temperature Precipitation Wind Pressure Humidity
    00:00 +12°C° 0.2 mm 5 mps 760 mmHg 90%
    01:00 +12°C° 0.9 mm 4 mps 760 mmHg 91%
    02:00 +12°C° 0.9 mm 4 mps 760 mmHg 93%
    03:00 +12°C° 0.9 mm 4 mps 759 mmHg 94%
    04:00 +11°C° 0.1 mm 4 mps 760 mmHg 93%
    05:00 +11°C° 0.1 mm 4 mps 760 mmHg 92%
    06:00 +11°C° 0.1 mm 4 mps 760 mmHg 92%
    07:00 +10°C° 0 mm 5 mps 760 mmHg 85%
    08:00 +11°C° 0 mm 6 mps 761 mmHg 78%
    09:00 +13°C° 0 mm 6 mps 761 mmHg 71%
    10:00 +12°C° 0 mm 7 mps 761 mmHg 66%
    11:00 +14°C° 0 mm 7 mps 761 mmHg 61%
    12:00 +15°C° 0 mm 7 mps 761 mmHg 57%
    13:00 +14°C° 0 mm 7 mps 761 mmHg 56%
    14:00 +13°C° 0 mm 8 mps 761 mmHg 56%
    15:00 +13°C° 0 mm 8 mps 761 mmHg 56%
    16:00 +12°C° 0.1 mm 8 mps 761 mmHg 60%
    17:00 +11°C° 0.1 mm 7 mps 761 mmHg 64%
    18:00 +10°C° 0.1 mm 7 mps 761 mmHg 69%
    19:00 +10°C° 0.1 mm 7 mps 761 mmHg 72%
    20:00 +9°C° 0.1 mm 7 mps 761 mmHg 74%
    21:00 +8°C° 0.1 mm 7 mps 762 mmHg 77%
    22:00 +8°C° 0 mm 7 mps 762 mmHg 79%
    23:00 +8°C° 0 mm 7 mps 762 mmHg 80%

    26 April, Thursday

    Time Temperature Precipitation Wind Pressure Humidity
    00:00 +6°C° 0 mm 7 mps 762 mmHg 81%
    01:00 +6°C° 0 mm 7 mps 762 mmHg 82%
    02:00 +6°C° 0 mm 7 mps 762 mmHg 82%
    03:00 +6°C° 0 mm 7 mps 762 mmHg 83%
    04:00 +6°C° 0 mm 7 mps 762 mmHg 81%
    05:00 +6°C° 0 mm 7 mps 762 mmHg 80%
    06:00 +6°C° 0 mm 7 mps 762 mmHg 79%
    07:00 +8°C° 0 mm 7 mps 762 mmHg 74%
    08:00 +10°C° 0 mm 7 mps 762 mmHg 68%
    09:00 +11°C° 0 mm 7 mps 763 mmHg 62%
    10:00 +11°C° 0 mm 7 mps 763 mmHg 58%
    11:00 +12°C° 0 mm 7 mps 763 mmHg 54%
    12:00 +12°C° 0 mm 7 mps 763 mmHg 50%
    13:00 +12°C° 0 mm 7 mps 763 mmHg 50%
    14:00 +14°C° 0 mm 6 mps 763 mmHg 49%
    15:00 +14°C° 0 mm 6 mps 762 mmHg 48%
    16:00 +13°C° 0 mm 6 mps 762 mmHg 54%
    17:00 +11°C° 0 mm 6 mps 762 mmHg 59%
    18:00 +10°C° 0 mm 5 mps 762 mmHg 65%
    19:00 +9°C° 0 mm 5 mps 763 mmHg 69%
    20:00 +8°C° 0 mm 5 mps 763 mmHg 73%
    21:00 +7°C° 0 mm 4 mps 763 mmHg 78%
    22:00 +6°C° 0 mm 4 mps 763 mmHg 81%
    23:00 +6°C° 0 mm 4 mps 763 mmHg 83%

    27 April, Friday

    Time Temperature Precipitation Wind Pressure Humidity
    00:00 +5°C° 0 mm 3 mps 763 mmHg 86%
    01:00 +5°C° 0 mm 3 mps 763 mmHg 87%
    02:00 +5°C° 0 mm 3 mps 762 mmHg 89%
    03:00 +5°C° 0 mm 3 mps 762 mmHg 90%
    04:00 +6°C° 0 mm 2 mps 762 mmHg 88%
    05:00 +6°C° 0 mm 2 mps 762 mmHg 87%
    06:00 +7°C° 0 mm 2 mps 762 mmHg 85%
    07:00 +8°C° 0.1 mm 2 mps 762 mmHg 78%
    08:00 +10°C° 0.1 mm 2 mps 762 mmHg 71%
    09:00 +12°C° 0.1 mm 2 mps 762 mmHg 64%
    10:00 +13°C° 0.1 mm 2 mps 762 mmHg 60%
    11:00 +12°C° 0.1 mm 3 mps 761 mmHg 57%
    12:00 +13°C° 0.1 mm 3 mps 761 mmHg 54%
    13:00 +13°C° 0.1 mm 3 mps 761 mmHg 55%
    14:00 +13°C° 0.1 mm 3 mps 761 mmHg 57%
    15:00 +12°C° 0.1 mm 3 mps 760 mmHg 58%
    16:00 +13°C° 0 mm 2 mps 760 mmHg 61%
    17:00 +12°C° 0 mm 2 mps 761 mmHg 63%
    18:00 +12°C° 0 mm 2 mps 761 mmHg 66%
    19:00 +10°C° 0 mm 1 mps 761 mmHg 69%
    20:00 +9°C° 0 mm 1 mps 761 mmHg 72%
    21:00 +8°C° 0 mm 1 mps 762 mmHg 76%
    22:00 +7°C° 0 mm 1 mps 761 mmHg 77%
    23:00 +7°C° 0 mm 1 mps 761 mmHg 77%

    28 April, Saturday

    Time Temperature Precipitation Wind Pressure Humidity
    00:00 +6°C° 0 mm 1 mps 761 mmHg 78%
    01:00 +6°C° 0 mm 1 mps 761 mmHg 79%
    02:00 +6°C° 0 mm 1 mps 761 mmHg 79%
    03:00 +5°C° 0 mm 1 mps 761 mmHg 80%
    04:00 +6°C° 0 mm 1 mps 761 mmHg 79%
    05:00 +6°C° 0 mm 2 mps 761 mmHg 78%
    06:00 +6°C° 0 mm 2 mps 761 mmHg 76%
    07:00 +8°C° 0 mm 3 mps 760 mmHg 72%
    08:00 +10°C° 0 mm 3 mps 760 mmHg 67%
    09:00 +11°C° 0 mm 4 mps 760 mmHg 62%
    10:00 +12°C° 0 mm 5 mps 760 mmHg 59%
    11:00 +13°C° 0 mm 5 mps 759 mmHg 56%
    12:00 +14°C° 0 mm 5 mps 759 mmHg 54%
    13:00 +14°C° 0 mm 6 mps 759 mmHg 54%
    14:00 +14°C° 0 mm 6 mps 758 mmHg 55%
    15:00 +14°C° 0 mm 6 mps 758 mmHg 55%
    16:00 +13°C° 0.1 mm 6 mps 757 mmHg 60%
    17:00 +11°C° 0.1 mm 6 mps 757 mmHg 66%
    18:00 +10°C° 0.1 mm 6 mps 757 mmHg 71%
    19:00 +10°C° 0.3 mm 7 mps 756 mmHg 74%
    20:00 +10°C° 0.3 mm 7 mps 756 mmHg 78%
    21:00 +9°C° 0.3 mm 8 mps 755 mmHg 81%
    22:00 +8°C° 1.9 mm 9 mps 755 mmHg 84%
    23:00 +8°C° 1.9 mm 9 mps 754 mmHg 86%
    Show more